Temperature
8 8 8 9 10 11 12 12 12 13 14 13 13 14 15 16 16 16 17 17 18 17 17 17 17 16 16 16 16 15 15 15 15 15 15 15 15 15 15 15 14 14 14 14
7 8 9 10 10 11 11 12 12 13 14 14 13 14 15 15 16 16 16 17 17 17 17 17 17 16 16 16 16 16 15 15 15 15 15 15 15 15 15 15 15 15 14 14
8 8 9 10 10 10 11 11 12 12 13 14 13 13 14 15 16 16 16 17 17 17 17 17 17 16 16 16 16 16 16 16 16 15 15 15 15 15 15 15 15 15 15 14
8 9 9 9 10 11 11 12 13 12 11 11 12 11 13 15 15 15 16 17 17 17 17 17 17 16 16 16 16 16 16 16 16 15 15 15 15 15 15 15 15 15 14 14
8 9 8 9 10 11 11 12 12 12 11 11 12 11 13 15 14 15 15 16 17 17 17 17 17 16 16 16 16 16 16 16 16 15 15 15 15 15 14 14 14 14 14 14
8 9 9 9 10 11 11 11 11 11 10 10 11 11 12 14 15 15 16 17 17 17 17 16 16 16 16 16 16 15 15 15 15 15 15 15 15 14 14 14 14 14 13 13
8 9 9 10 9 10 10 9 8 9 8 9 13 12 13 16 16 16 16 16 16 16 16 16 16 15 15 15 15 15 15 15 15 15 15 15 14 14 14 13 13 13 13 12
7 8 9 9 9 9 9 9 9 9 9 10 12 12 14 15 16 16 16 16 16 16 15 15 15 15 15 15 15 15 15 15 15 15 14 14 14 13 13 13 12 12 12 12
8 8 10 10 10 10 9 9 10 9 10 10 11 13 15 15 15 15 15 15 15 15 15 15 14 14 14 14 14 14 14 14 14 14 14 13 13 13 13 12 12 12 11 11
9 8 9 9 10 10 9 10 9 8 9 10 11 12 13 13 13 14 14 14 14 14 14 13 13 13 13 13 13 12 12 12 12 13 13 13 12 12 12 12 11 11 11 10
9 8 8 8 8 9 9 9 9 9 9 9 10 12 14 13 13 13 13 14 13 13 13 13 12 12 11 12 11 11 11 11 11 12 12 12 11 11 11 11 11 10 10 9
9 8 7 8 9 9 9 9 9 8 9 10 9 11 14 12 13 13 13 13 13 12 12 12 11 11 10 10 10 10 10 10 11 11 11 11 11 10 10 10 10 9 9 8
9 8 7 7 8 8 8 9 10 9 8 8 8 10 13 12 13 13 13 13 12 12 11 11 10 10 9 9 9 9 9 10 10 10 10 10 10 10 9 9 9 8 8 7
9 8 7 7 8 8 8 9 9 8 7 8 9 10 12 12 12 13 13 12 12 11 11 10 10 9 9 8 8 8 9 9 9 9 9 9 9 9 9 8 8 7 7 6
8 7 8 8 9 9 8 9 9 8 8 8 9 10 11 12 12 12 12 12 12 11 11 10 10 9 8 8 8 8 9 9 9 9 9 9 8 8 8 7 7 6 6 6
7 7 7 7 9 9 8 8 9 8 9 9 9 9 11 12 12 12 12 11 11 11 11 10 10 9 9 8 8 8 9 9 9 9 9 8 8 8 7 7 6 6 5 5
7 7 7 7 8 8 7 8 8 8 9 9 9 10 10 10 11 11 11 10 10 10 10 10 10 9 9 9 9 9 9 9 9 8 8 8 7 7 6 6 5 5 4 4
7 7 6 7 7 6 8 9 9 9 9 9 9 10 10 10 10 10 10 9 9 9 9 9 9 9 9 9 9 9 9 8 8 8 8 7 7 6 6 5 4 4 3 3
7 7 6 6 6 7 9 9 9 9 9 9 9 9 10 10 9 9 8 8 8 8 9 9 9 9 9 9 9 8 8 8 8 8 8 7 7 6 5 5 4 3 2 2
7 7 6 6 6 6 8 8 9 8 7 8 8 8 8 8 7 7 7 7 8 8 8 8 8 8 8 8 8 8 8 8 8 8 7 7 6 5 5 4 3 2 2 1
6 6 5 5 6 6 7 8 8 7 6 7 7 7 7 7 6 7 7 7 7 7 7 8 8 8 8 8 8 7 7 7 7 7 6 6 5 5 4 3 2 2 1 1
6 6 6 6 5 5 7 7 6 6 6 6 6 6 6 6 6 6 6 6 6 6 7 7 7 7 7 7 7 7 7 6 6 6 5 5 4 4 3 2 2 1 1 1
6 6 5 6 6 6 7 6 6 6 5 5 5 5 5 5 6 6 6 6 6 6 6 6 6 7 7 6 6 6 6 5 5 5 5 4 3 3 2 2 1 1 1 0
6 6 5 5 6 6 6 5 5 5 4 4 4 4 5 5 5 5 5 5 5 5 6 6 6 6 6 6 6 5 5 5 4 4 4 3 3 2 2 1 1 0 0 0
5 5 5 5 5 5 5 4 4 4 3 3 4 4 4 4 4 4 4 5 5 5 5 5 5 5 5 5 5 5 4 4 4 3 3 3 2 2 1 1 0 0 0 0
4 4 3 4 4 3 3 3 3 3 3 3 3 3 3 3 3 4 4 4 4 4 5 5 5 5 4 4 4 4 4 3 3 3 2 2 2 1 1 0 0 -0 -0 -0
Wind_Speed
3 3 5 8 10 7 7 9 10 9 9 11 12 13 11 8 8 10 10 9 8 7 7 7 7 6 6 6 7 8 8 8 6 5 5 5 4 3 3 3 3 2 2 2
2 4 4 4 5 8 8 8 8 5 8 9 10 12 11 10 11 10 12 12 10 8 7 7 7 6 6 7 7 8 8 7 6 5 4 4 4 3 3 3 4 3 2 2
2 1 1 3 5 7 8 7 6 5 5 6 6 9 12 11 12 11 11 11 11 10 10 10 9 8 7 7 7 7 7 7 6 6 4 3 3 2 2 3 3 3 3 2
1 1 3 4 6 7 6 5 4 5 5 5 8 5 11 13 14 15 13 12 11 11 10 10 10 10 8 7 6 6 6 6 6 6 6 6 5 4 4 4 3 4 4 4
1 2 3 5 5 4 1 0 2 4 5 4 6 5 6 12 12 14 13 13 12 11 10 10 11 10 8 7 6 5 5 5 5 5 5 5 4 3 3 4 5 4 4 5
1 1 2 2 2 2 1 1 1 2 3 5 8 8 6 9 13 12 12 12 11 10 9 8 9 9 8 7 7 6 6 6 5 5 5 4 5 5 5 4 4 3 3 3
2 3 2 2 2 2 4 4 3 4 4 6 8 7 6 3 5 5 6 7 7 7 7 7 9 9 9 9 7 7 8 7 6 6 5 5 5 5 5 4 4 4 3 3
2 3 5 4 3 4 6 5 2 3 5 3 5 7 4 4 5 5 2 2 3 4 5 7 10 9 10 10 9 8 7 7 7 7 6 6 6 5 4 5 4 4 4 4
1 1 4 4 2 2 4 5 3 3 3 2 5 5 4 5 5 5 4 3 3 3 3 5 8 9 10 10 9 9 8 8 7 7 7 7 7 6 6 6 5 5 4 4
2 1 2 2 1 3 3 2 2 2 2 3 5 7 5 9 7 5 4 3 3 3 3 3 6 8 9 9 8 8 9 9 8 7 7 7 7 6 6 5 6 5 5 4
2 1 3 3 5 5 4 3 3 2 2 2 2 0 3 6 7 6 4 3 3 3 3 3 5 7 8 8 8 8 8 8 8 8 8 7 7 6 6 5 6 5 4 4
2 1 3 4 2 2 4 6 5 2 3 2 2 1 4 8 7 6 5 4 3 3 3 4 6 7 7 8 8 8 8 8 7 8 8 8 7 6 6 6 5 5 4 4
1 1 1 2 3 4 4 6 6 3 1 2 2 2 2 6 5 4 3 3 3 4 4 4 6 7 7 8 8 7 8 8 7 8 8 7 7 6 6 6 5 5 4 4
3 2 3 3 1 3 5 6 7 5 4 4 6 5 3 2 1 1 1 1 2 3 4 5 5 6 7 8 8 8 8 8 8 8 8 7 7 6 6 6 5 5 4 4
1 3 4 5 5 2 4 6 8 9 8 6 6 6 6 4 3 3 2 2 1 2 4 5 6 6 7 8 8 8 8 8 8 8 8 7 7 7 7 6 5 5 4 4
1 2 3 4 5 5 6 8 9 9 10 11 11 11 7 6 5 5 5 4 4 3 4 5 6 7 8 9 9 9 9 9 9 8 8 7 8 7 7 6 5 5 4 4
2 2 2 3 2 3 6 8 10 8 8 9 11 8 5 6 6 5 5 5 5 4 3 4 5 6 7 8 9 10 9 9 9 8 8 8 8 7 7 6 6 5 4 4
3 3 2 3 2 4 2 1 1 5 6 6 6 6 5 5 5 4 5 5 5 4 3 2 3 5 5 7 8 9 10 10 9 8 9 9 9 8 7 7 6 5 4 4
5 3 2 2 3 4 2 1 1 2 2 3 3 5 5 5 4 3 5 5 5 4 3 2 2 3 4 6 8 9 9 9 9 9 9 9 9 9 8 7 7 5 5 4
3 3 3 3 3 2 3 4 4 2 0 7 7 7 7 6 3 2 6 6 6 5 4 4 2 1 3 5 8 9 9 9 10 9 9 9 9 9 9 8 7 5 5 5
2 3 4 5 4 2 3 3 2 1 1 7 7 7 7 5 3 5 6 6 5 5 5 5 4 3 2 4 6 8 8 8 7 7 8 8 8 8 8 7 6 6 6 6
2 2 3 3 3 2 4 3 3 3 5 6 7 7 7 6 6 5 4 4 4 4 5 5 4 4 4 4 4 5 5 5 7 7 8 8 8 7 7 8 7 7 7 7
0 1 1 1 1 1 3 3 4 5 5 6 7 8 7 7 6 5 4 3 2 3 3 3 2 3 2 2 3 4 4 6 7 7 7 7 7 7 7 8 8 7 7 6
1 1 2 3 1 3 4 5 7 7 7 7 7 8 7 7 6 5 4 2 2 2 2 2 1 1 1 2 2 4 5 6 7 7 7 7 7 7 7 7 7 7 8 7
3 2 3 3 3 3 4 7 8 8 8 8 8 7 7 7 6 5 4 3 2 2 2 1 1 1 0 1 2 4 5 6 6 6 6 6 7 7 7 7 7 8 7 8
2 1 1 1 4 4 5 7 9 8 8 8 9 9 7 6 6 5 4 3 2 2 2 2 1 1 0 1 2 3 5 6 6 6 6 6 6 6 6 6 5 9 9 12
Wind_Direction
179 190 205 203 214 239 222 211 208 201 181 194 215 230 232 219 215 228 235 232 218 200 179 156 155 167 169 173 174 174 172 178 168 164 168 166 171 165 152 137 144 163 174 178
165 219 235 235 237 257 250 222 216 194 182 193 215 230 232 222 221 224 228 228 229 210 181 164 163 170 179 180 182 175 172 172 167 164 161 157 151 147 142 131 128 123 107 94
190 146 198 215 226 228 238 224 207 184 175 207 220 233 230 223 224 228 231 231 228 221 196 175 173 178 184 186 180 174 165 163 159 149 137 122 109 110 143 154 145 118 108 92
244 251 224 208 220 220 223 221 208 186 183 209 202 230 225 216 214 217 219 227 229 224 207 183 175 177 181 174 153 151 153 154 155 152 156 166 170 178 177 154 141 121 103 79
195 185 205 207 221 238 233 338 183 212 229 241 204 231 244 209 211 212 210 215 222 220 207 186 176 172 164 147 140 141 136 140 143 148 156 169 165 151 129 119 124 123 102 84
222 233 239 236 241 266 152 102 171 241 245 246 214 215 258 209 206 203 202 206 209 208 201 182 162 151 141 135 139 145 147 144 138 140 143 149 146 139 133 133 138 128 113 100
185 196 204 223 177 200 188 158 163 185 207 232 207 208 239 224 168 170 185 200 204 194 182 168 157 156 151 151 157 159 155 149 144 141 134 127 127 128 132 132 129 121 110 98
180 194 190 199 207 191 204 212 206 197 197 205 187 213 229 145 110 110 130 172 191 190 175 169 165 163 159 158 163 166 161 150 140 129 114 106 99 98 98 91 93 94 94 89
220 147 154 186 215 231 196 223 257 307 293 209 209 218 199 128 132 153 167 171 191 185 168 168 159 158 158 160 166 167 156 141 134 126 117 109 103 98 97 92 87 87 86 83
320 140 173 171 216 249 255 255 214 205 242 234 210 206 204 165 164 152 146 149 159 153 149 148 149 153 155 155 156 153 145 141 136 128 120 115 109 104 104 101 96 91 87 82
268 184 165 176 211 211 201 224 227 227 265 272 234 179 38 123 126 125 117 104 104 127 145 147 137 141 140 141 144 143 139 136 135 130 123 119 115 111 106 103 100 98 91 84
239 222 207 207 212 258 240 230 217 212 254 259 296 301 69 88 94 99 103 102 99 108 122 134 134 135 139 143 145 145 142 141 139 133 128 125 121 119 117 112 105 101 97 90
289 227 201 195 204 210 242 236 236 237 294 262 242 235 105 104 104 109 113 126 136 139 142 150 149 151 153 154 154 151 149 144 137 131 129 129 132 133 127 119 112 106 102 96
326 272 251 269 302 183 207 222 226 211 210 234 235 250 240 161 146 178 157 118 138 161 164 168 166 167 166 165 162 158 154 146 143 140 141 144 144 137 128 123 119 115 111 108
305 279 275 280 288 272 243 228 222 222 225 231 253 266 283 318 331 321 332 331 304 210 184 182 182 181 175 170 166 161 155 151 150 149 150 149 139 129 125 124 123 122 122 120
262 280 299 282 260 259 258 249 238 236 238 246 263 271 283 301 318 320 323 317 298 265 218 195 190 186 182 176 170 163 160 157 154 155 153 144 136 133 136 136 136 136 133 129
247 274 294 269 246 279 260 240 234 230 231 239 252 262 296 307 317 323 323 309 289 276 253 217 201 194 187 180 170 168 163 154 156 157 153 149 146 147 148 147 146 150 149 142
263 279 271 279 272 248 244 62 224 242 254 257 270 295 306 307 317 329 336 330 319 311 293 256 221 200 186 170 162 158 154 156 160 160 158 157 155 155 151 153 160 158 147 145
229 256 271 273 268 261 207 88 16 267 283 348 322 330 341 350 335 4 11 4 343 330 321 300 257 206 172 163 157 151 155 158 163 169 168 165 162 160 160 167 168 158 152 153
210 235 261 275 283 282 47 30 4 341 6 25 18 5 356 352 338 344 358 3 359 357 355 345 334 54 140 150 146 152 160 165 176 175 168 162 162 163 168 171 165 156 156 160
183 212 229 248 258 277 26 352 338 332 25 4 4 359 353 348 325 323 346 2 2 2 0 1 19 50 77 119 137 155 163 177 172 156 152 156 160 162 163 161 159 158 159 162
208 224 215 223 235 251 19 25 34 11 356 356 353 350 342 330 325 336 346 354 3 10 12 17 38 44 48 80 123 148 163 155 140 142 149 156 158 159 160 158 161 165 168 174
238 347 318 271 232 60 52 50 25 12 354 349 343 335 329 323 324 330 333 343 3 24 21 24 55 63 57 71 115 148 154 143 141 146 155 158 158 158 161 166 170 174 180 186
37 30 311 299 323 18 47 38 21 10 353 339 332 326 326 320 322 324 324 335 355 20 23 25 52 94 131 143 131 148 149 146 151 162 166 166 167 168 172 177 179 185 190 194
303 320 285 272 323 353 40 20 1 349 343 337 334 332 329 325 322 325 326 339 349 1 12 11 3 359 123 142 150 150 154 155 165 170 172 173 177 179 185 190 194 197 203 201
228 238 285 300 18 342 324 343 344 338 337 336 330 327 329 329 320 323 325 338 347 355 2 348 339 327 300 165 169 165 167 169 173 179 182 183 184 185 188 192 204 214 214 219
Height
1485 1487 1486 1485 1484 1483 1483 1484 1485 1485 1484 1490 1493 1493 1492 1493 1495 1497 1499 1500 1503 1505 1508 1510 1512 1515 1517 1520 1523 1525 1528 1531 1534 1536 1539 1542 1544 1547 1549 1550 1552 1553 1554 1555
1487 1487 1484 1483 1484 1484 1482 1483 1484 1483 1483 1487 1491 1491 1489 1490 1492 1494 1495 1497 1499 1502 1504 1507 1509 1512 1514 1517 1520 1523 1526 1528 1531 1534 1536 1539 1541 1543 1545 1547 1548 1550 1551 1552
1485 1485 1484 1484 1485 1485 1484 1484 1484 1486 1486 1486 1490 1492 1488 1486 1487 1489 1491 1493 1495 1498 1501 1503 1506 1508 1511 1514 1517 1520 1522 1525 1528 1530 1533 1536 1538 1540 1542 1543 1545 1546 1547 1548
1485 1484 1484 1485 1485 1483 1484 1480 1482 1486 1491 1493 1491 1498 1485 1480 1482 1483 1486 1488 1490 1493 1496 1499 1501 1504 1508 1511 1513 1516 1519 1522 1525 1527 1530 1532 1534 1536 1538 1540 1541 1542 1543 1543
1485 1484 1485 1485 1484 1483 1483 1481 1484 1487 1490 1491 1489 1494 1484 1475 1478 1478 1479 1483 1485 1488 1492 1494 1497 1500 1503 1507 1510 1512 1515 1518 1521 1524 1526 1529 1531 1533 1535 1536 1537 1538 1538 1539
1485 1485 1485 1484 1484 1484 1484 1486 1487 1489 1492 1499 1488 1491 1484 1472 1470 1471 1474 1477 1480 1484 1487 1490 1493 1495 1499 1502 1505 1509 1512 1514 1517 1520 1523 1525 1527 1529 1531 1532 1533 1533 1534 1534
1485 1485 1485 1485 1486 1486 1487 1492 1499 1500 1501 1496 1479 1482 1478 1464 1462 1465 1469 1472 1476 1480 1483 1486 1488 1491 1494 1497 1501 1504 1507 1510 1513 1516 1519 1521 1523 1525 1527 1528 1529 1529 1529 1530
1487 1487 1484 1484 1485 1486 1487 1489 1495 1496 1495 1487 1476 1479 1470 1461 1461 1464 1467 1470 1473 1476 1479 1482 1484 1487 1490 1493 1497 1500 1503 1506 1509 1512 1514 1517 1519 1521 1522 1524 1524 1525 1525 1525
1483 1484 1482 1482 1484 1485 1487 1489 1487 1490 1485 1487 1481 1470 1464 1461 1463 1465 1467 1469 1471 1473 1476 1479 1481 1483 1486 1489 1493 1496 1499 1502 1505 1508 1510 1513 1515 1517 1518 1520 1520 1521 1521 1521
1481 1485 1484 1483 1484 1485 1486 1485 1488 1493 1491 1488 1477 1472 1469 1465 1464 1465 1467 1469 1471 1473 1475 1477 1479 1481 1483 1486 1489 1492 1495 1498 1501 1504 1506 1509 1511 1513 1515 1516 1516 1517 1517 1517
1481 1485 1486 1486 1486 1484 1486 1486 1485 1486 1486 1489 1483 1477 1461 1461 1463 1466 1468 1469 1471 1472 1474 1476 1477 1479 1481 1483 1486 1489 1492 1495 1498 1501 1503 1506 1508 1509 1511 1511 1512 1512 1513 1513
1480 1483 1485 1484 1482 1482 1483 1482 1483 1490 1488 1483 1485 1482 1462 1462 1464 1466 1468 1470 1471 1472 1473 1474 1476 1477 1479 1481 1483 1486 1488 1492 1495 1497 1500 1502 1504 1506 1507 1508 1508 1509 1509 1509
1480 1483 1487 1486 1487 1485 1483 1480 1480 1483 1487 1488 1488 1481 1464 1464 1466 1467 1468 1469 1470 1471 1472 1473 1474 1475 1477 1479 1481 1483 1486 1489 1492 1494 1497 1499 1501 1502 1503 1504 1504 1505 1505 1505
1482 1483 1485 1484 1481 1480 1481 1479 1478 1483 1489 1486 1482 1476 1469 1467 1467 1467 1468 1469 1469 1470 1471 1472 1472 1474 1475 1477 1479 1481 1484 1486 1489 1491 1494 1496 1497 1499 1500 1500 1501 1501 1501 1501
1482 1483 1480 1478 1476 1476 1477 1476 1477 1481 1481 1483 1476 1473 1469 1467 1468 1467 1467 1468 1468 1469 1469 1470 1471 1472 1473 1475 1477 1479 1481 1484 1486 1489 1491 1493 1494 1495 1496 1497 1497 1497 1498 1498
1482 1483 1481 1479 1475 1475 1476 1474 1474 1475 1475 1475 1474 1472 1468 1467 1467 1466 1466 1466 1467 1467 1467 1468 1468 1469 1470 1472 1474 1476 1478 1481 1484 1486 1488 1489 1491 1492 1493 1493 1493 1494 1494 1494
1482 1483 1483 1480 1474 1475 1478 1470 1470 1470 1468 1470 1471 1469 1466 1466 1466 1466 1466 1465 1465 1465 1465 1465 1465 1466 1467 1469 1471 1473 1476 1478 1480 1482 1484 1486 1487 1488 1489 1489 1490 1490 1490 1491
1482 1482 1483 1480 1478 1482 1472 1464 1464 1465 1465 1466 1465 1465 1464 1465 1464 1464 1464 1464 1463 1463 1462 1462 1463 1463 1464 1466 1468 1470 1472 1475 1477 1479 1480 1482 1483 1484 1485 1486 1486 1486 1487 1488
1480 1482 1482 1481 1478 1472 1467 1465 1465 1466 1466 1465 1465 1464 1464 1463 1463 1463 1463 1462 1461 1460 1460 1459 1460 1460 1461 1463 1464 1466 1468 1471 1473 1474 1476 1478 1479 1480 1481 1482 1482 1483 1484 1485
1479 1480 1484 1481 1480 1477 1471 1468 1465 1468 1469 1468 1467 1466 1465 1464 1466 1465 1463 1461 1459 1458 1457 1457 1457 1457 1458 1459 1461 1463 1465 1467 1468 1471 1472 1474 1475 1476 1477 1478 1479 1480 1481 1482
1480 1481 1483 1482 1480 1474 1472 1469 1468 1473 1475 1472 1469 1468 1467 1466 1467 1465 1462 1460 1458 1457 1455 1455 1455 1455 1456 1457 1458 1460 1461 1463 1465 1467 1468 1470 1471 1472 1474 1474 1475 1476 1477 1479
1478 1479 1478 1478 1479 1480 1473 1470 1474 1476 1473 1472 1470 1469 1467 1466 1464 1462 1460 1459 1457 1455 1454 1454 1453 1454 1454 1455 1456 1457 1458 1460 1462 1463 1464 1466 1467 1468 1469 1470 1471 1473 1474 1475
1476 1478 1477 1477 1478 1475 1473 1473 1474 1473 1472 1471 1469 1468 1466 1464 1462 1461 1459 1457 1456 1455 1454 1453 1452 1452 1452 1453 1454 1455 1456 1457 1458 1459 1461 1462 1463 1464 1466 1467 1467 1469 1470 1471
1476 1476 1476 1475 1473 1473 1473 1473 1473 1472 1471 1470 1468 1466 1464 1463 1461 1459 1457 1456 1454 1453 1453 1452 1451 1451 1451 1451 1452 1452 1453 1454 1455 1456 1457 1458 1459 1460 1462 1463 1464 1465 1466 1467
1478 1476 1476 1474 1474 1473 1472 1473 1472 1471 1469 1468 1466 1464 1462 1460 1458 1457 1455 1454 1453 1452 1451 1451 1450 1450 1449 1449 1450 1450 1451 1451 1452 1453 1454 1455 1456 1457 1457 1458 1460 1461 1462 1464
1477 1477 1477 1476 1476 1476 1474 1472 1471 1469 1467 1465 1463 1461 1459 1458 1456 1454 1453 1451 1450 1450 1449 1448 1448 1448 1447 1447 1447 1447 1448 1448 1449 1449 1450 1451 1452 1452 1453 1454 1456 1457 1458 1460